Location: Chillicothe
(39.7950°N, 93.5520°W)
Time: 14:50:05
(UTC-06:00)

BEESAT - Pass Details

Date: 16 November 2019
Orbit: 700 x 709 km, 98.6° (Epoch: 11 December)

Event Time Altitude Azimuth Distance (km) Brightness Sun altitude
Rises 19:01:41 0° 355° (N) 3,095 ? -23.8°
Reaches altitude 10° 19:04:38 10° 336° (NNW) 2,173 ? -24.3°
Maximum altitude 19:07:38 17° 297° (WNW) 1,745 ? -24.9°
Drops below altitude 10° 19:10:38 10° 257° (WSW) 2,167 ? -25.5°
Sets 19:13:35 0° 237° (WSW) 3,082 ? -26.1°
